World > North America > United States > North Dakota

Napoleon, North Dakota Regional Weather

Lat: 46.51N, Lon: 99.77W
Wx Zone: NDZ047
Feedback

Napoleon, ND Regional Weather

Expires:201910240500;;180601
ASUS43 KBIS 240431
RWRND 
NORTH DAKOTA REGIONAL WEATHER ROUNDUP
NATIONAL WEATHER SERVICE EASTERN NORTH DAKOTA/GRAND FORKS ND
1100 PM CDT WED OCT 23 2019

  NOTE: "FAIR" INDICATES FEW OR NO CLOUDS BELOW 12,000 FEET WITH NO
  SIGNIFICANT WEATHER AND/OR OBSTRUCTIONS TO VISIBILITY.


NDZ022-023-025-028>030-036>039-047>053-240500-
...SOUTHEAST NORTH DAKOTA...
  
CITY           SKY/WX    TMP DP  RH WIND       PRES   REMARKS
JAMESTOWN      CLOUDY    36  27  69 W8        30.19R WCI  30          
FARGO          FAIR      32  25  75 NW5       30.20R WCI  27          
WAHPETON         N/A     32  28  86 NW6       30.21S WCI  26          
$$
  

SKY/WX - Weather  TMP - Temperature  DP - Dew Point  RH - Relative Humidity
WIND - Wind Direction/Speed PRES - Barometric Pressure VSB - Visibility
WCI - Wind Chill Index E13G22 Wind - East Wind 13 mph/Gusts of 22 mph